• In Spain
  • List of Countries
  • For 7 days
  • Water Temperature
  • Satellite Maps
  • Weather Map
  • Weather Widgets
  • user-avatar
    Login

    Hourly Weather Cartagena

    Today, 14 November, Wednesday

    Time Temperature Precipitation Wind Pressure Humidity
    00:00 +17°C° 0 mm 5 mps 766 mmHg 82%
    01:00 +17°C° 0.1 mm 5 mps 766 mmHg 82%
    02:00 +17°C° 0.1 mm 5 mps 765 mmHg 82%
    03:00 +17°C° 0.1 mm 5 mps 765 mmHg 82%
    04:00 +17°C° 0.3 mm 5 mps 765 mmHg 82%
    05:00 +17°C° 0.3 mm 5 mps 765 mmHg 81%
    06:00 +17°C° 0 mm 5 mps 765 mmHg 81%
    07:00 +17°C° 0.4 mm 5 mps 765 mmHg 78%
    08:00 +19°C° 0.4 mm 5 mps 765 mmHg 75%
    09:00 +19°C° 0.4 mm 5 mps 765 mmHg 72%
    10:00 +20°C° 0.1 mm 5 mps 764 mmHg 68%
    11:00 +21°C° 0.1 mm 5 mps 764 mmHg 64%
    12:00 +21°C° 0 mm 7 mps 764 mmHg 63%
    13:00 +22°C° 0.2 mm 7 mps 764 mmHg 63%
    14:00 +22°C° 0.2 mm 6 mps 763 mmHg 63%
    15:00 +22°C° 0.2 mm 6 mps 763 mmHg 62%
    16:00 +21°C° 0.1 mm 6 mps 763 mmHg 66%
    17:00 +20°C° 0.1 mm 6 mps 762 mmHg 70%
    18:00 +19°C° 0.1 mm 6 mps 762 mmHg 74%
    19:00 +19°C° 0.3 mm 6 mps 762 mmHg 76%
    20:00 +19°C° 0.3 mm 6 mps 762 mmHg 77%
    21:00 +19°C° 0.3 mm 6 mps 762 mmHg 78%
    22:00 +17°C° 1.7 mm 6 mps 762 mmHg 80%
    23:00 +17°C° 1.7 mm 6 mps 761 mmHg 82%

    Tomorrow, 15 November, Thursday

    Time Temperature Precipitation Wind Pressure Humidity
    00:00 +17°C° 1.7 mm 6 mps 761 mmHg 83%
    01:00 +17°C° 2.4 mm 5 mps 761 mmHg 84%
    02:00 +17°C° 2.4 mm 5 mps 761 mmHg 84%
    03:00 +18°C° 2.4 mm 4 mps 760 mmHg 84%
    04:00 +18°C° 0.6 mm 4 mps 760 mmHg 84%
    05:00 +17°C° 0.6 mm 3 mps 760 mmHg 85%
    06:00 +17°C° 0.6 mm 3 mps 760 mmHg 85%
    07:00 +18°C° 0.3 mm 3 mps 760 mmHg 82%
    08:00 +18°C° 0.3 mm 3 mps 761 mmHg 80%
    09:00 +19°C° 0.3 mm 4 mps 761 mmHg 77%
    10:00 +20°C° 0.3 mm 4 mps 761 mmHg 72%
    11:00 +21°C° 0.3 mm 4 mps 761 mmHg 67%
    12:00 +22°C° 0.3 mm 5 mps 761 mmHg 62%
    13:00 +22°C° 0.5 mm 5 mps 761 mmHg 63%
    14:00 +21°C° 0.5 mm 5 mps 760 mmHg 64%
    15:00 +21°C° 0.5 mm 5 mps 760 mmHg 64%
    16:00 +20°C° 0.1 mm 5 mps 760 mmHg 69%
    17:00 +20°C° 0.1 mm 5 mps 761 mmHg 74%
    18:00 +19°C° 0.1 mm 4 mps 761 mmHg 78%
    19:00 +18°C° 0.1 mm 4 mps 761 mmHg 80%
    20:00 +18°C° 0.1 mm 4 mps 762 mmHg 82%
    21:00 +18°C° 0.1 mm 4 mps 762 mmHg 83%
    22:00 +17°C° 0.1 mm 4 mps 762 mmHg 84%
    23:00 +17°C° 0.1 mm 4 mps 762 mmHg 84%

    Day after tomorrow, 16 November, Friday

    Time Temperature Precipitation Wind Pressure Humidity
    00:00 +17°C° 0.1 mm 3 mps 762 mmHg 84%
    01:00 +17°C° 0 mm 4 mps 762 mmHg 84%
    02:00 +17°C° 0 mm 4 mps 762 mmHg 83%
    03:00 +17°C° 0 mm 4 mps 762 mmHg 83%
    04:00 +15°C° 0.1 mm 4 mps 762 mmHg 83%
    05:00 +15°C° 0.1 mm 4 mps 762 mmHg 83%
    06:00 +15°C° 0.1 mm 4 mps 762 mmHg 83%
    07:00 +17°C° 0.1 mm 4 mps 762 mmHg 79%
    08:00 +18°C° 0.1 mm 4 mps 762 mmHg 75%
    09:00 +19°C° 0.1 mm 4 mps 762 mmHg 71%
    10:00 +19°C° 0.1 mm 4 mps 762 mmHg 68%
    11:00 +20°C° 0.1 mm 5 mps 762 mmHg 64%
    12:00 +21°C° 0.1 mm 5 mps 761 mmHg 61%
    13:00 +21°C° 0.4 mm 5 mps 761 mmHg 62%
    14:00 +21°C° 0.4 mm 6 mps 761 mmHg 63%
    15:00 +21°C° 0.4 mm 6 mps 760 mmHg 65%
    16:00 +20°C° 0.7 mm 5 mps 760 mmHg 71%
    17:00 +19°C° 0.7 mm 5 mps 760 mmHg 77%
    18:00 +17°C° 0.7 mm 5 mps 760 mmHg 83%
    19:00 +17°C° 0.9 mm 5 mps 761 mmHg 84%
    20:00 +17°C° 0.9 mm 5 mps 761 mmHg 85%
    21:00 +18°C° 0.9 mm 4 mps 761 mmHg 86%
    22:00 +16°C° 1.1 mm 5 mps 761 mmHg 87%
    23:00 +16°C° 1.1 mm 5 mps 761 mmHg 88%

    17 November, Saturday

    Time Temperature Precipitation Wind Pressure Humidity
    00:00 +16°C° 1.1 mm 5 mps 761 mmHg 89%
    01:00 +16°C° 0.7 mm 5 mps 760 mmHg 89%
    02:00 +16°C° 0.7 mm 5 mps 760 mmHg 89%
    03:00 +16°C° 0.7 mm 5 mps 760 mmHg 89%
    04:00 +15°C° 0.2 mm 5 mps 760 mmHg 89%
    05:00 +15°C° 0.2 mm 4 mps 760 mmHg 88%
    06:00 +15°C° 0.2 mm 4 mps 759 mmHg 88%
    07:00 +17°C° 0 mm 4 mps 759 mmHg 83%
    08:00 +18°C° 0 mm 4 mps 760 mmHg 78%
    09:00 +18°C° 0 mm 4 mps 760 mmHg 73%
    10:00 +19°C° 0 mm 4 mps 759 mmHg 69%
    11:00 +20°C° 0 mm 4 mps 759 mmHg 65%
    12:00 +20°C° 0 mm 4 mps 759 mmHg 61%
    13:00 +20°C° 0 mm 4 mps 758 mmHg 61%
    14:00 +20°C° 0 mm 4 mps 758 mmHg 62%
    15:00 +20°C° 0 mm 4 mps 758 mmHg 62%
    16:00 +19°C° 0.1 mm 4 mps 757 mmHg 69%
    17:00 +18°C° 0.1 mm 4 mps 757 mmHg 75%
    18:00 +17°C° 0.1 mm 4 mps 757 mmHg 82%
    19:00 +17°C° 0.1 mm 4 mps 757 mmHg 83%
    20:00 +17°C° 0.1 mm 4 mps 757 mmHg 84%
    21:00 +17°C° 0.1 mm 4 mps 757 mmHg 86%
    22:00 +17°C° 0.1 mm 3 mps 756 mmHg 86%
    23:00 +16°C° 0.1 mm 3 mps 756 mmHg 86%

    18 November, Sunday

    Time Temperature Precipitation Wind Pressure Humidity
    00:00 +16°C° 0.1 mm 3 mps 755 mmHg 86%
    01:00 +16°C° 0.1 mm 3 mps 755 mmHg 86%
    02:00 +15°C° 0.1 mm 4 mps 754 mmHg 87%
    03:00 +15°C° 0.1 mm 4 mps 754 mmHg 87%
    04:00 +15°C° 0.1 mm 4 mps 754 mmHg 87%
    05:00 +15°C° 0.1 mm 4 mps 753 mmHg 86%
    06:00 +15°C° 0.1 mm 5 mps 753 mmHg 86%
    07:00 +15°C° 0.3 mm 5 mps 753 mmHg 85%
    08:00 +15°C° 0.3 mm 5 mps 753 mmHg 84%
    09:00 +16°C° 0.3 mm 6 mps 753 mmHg 83%
    10:00 +16°C° 0.5 mm 6 mps 753 mmHg 83%
    11:00 +16°C° 0.5 mm 6 mps 753 mmHg 82%
    12:00 +16°C° 0.5 mm 5 mps 753 mmHg 81%
    13:00 +17°C° 0.9 mm 5 mps 752 mmHg 81%
    14:00 +17°C° 0.9 mm 5 mps 752 mmHg 81%
    15:00 +17°C° 0.9 mm 5 mps 752 mmHg 81%
    16:00 +17°C° 0.4 mm 4 mps 752 mmHg 83%
    17:00 +17°C° 0.4 mm 3 mps 752 mmHg 86%
    18:00 +16°C° 0.4 mm 3 mps 752 mmHg 88%
    19:00 +16°C° 0.1 mm 3 mps 752 mmHg 89%
    20:00 +16°C° 0.1 mm 3 mps 753 mmHg 90%
    21:00 +14°C° 0.1 mm 3 mps 753 mmHg 91%
    22:00 +14°C° 0 mm 3 mps 753 mmHg 91%
    23:00 +14°C° 0 mm 3 mps 753 mmHg 91%

    19 November, Monday

    Time Temperature Precipitation Wind Pressure Humidity
    00:00 +13°C° 0 mm 3 mps 753 mmHg 91%
    01:00 +13°C° 0 mm 3 mps 753 mmHg 91%
    02:00 +14°C° 0 mm 2 mps 753 mmHg 91%
    03:00 +14°C° 0 mm 2 mps 753 mmHg 91%
    04:00 +14°C° 0 mm 2 mps 753 mmHg 90%
    05:00 +14°C° 0 mm 2 mps 753 mmHg 90%
    06:00 +13°C° 0 mm 1 mps 753 mmHg 90%
    07:00 +15°C° 0 mm 1 mps 753 mmHg 86%
    08:00 +16°C° 0 mm 1 mps 753 mmHg 81%
    09:00 +18°C° 0 mm 1 mps 754 mmHg 77%
    10:00 +18°C° 0 mm 1 mps 753 mmHg 71%
    11:00 +19°C° 0 mm 1 mps 753 mmHg 65%
    12:00 +20°C° 0 mm 1 mps 753 mmHg 59%
    13:00 +20°C° 0.1 mm 1 mps 753 mmHg 59%
    14:00 +20°C° 0.1 mm 1 mps 752 mmHg 59%
    15:00 +19°C° 0.1 mm 2 mps 752 mmHg 59%
    16:00 +19°C° 0.2 mm 2 mps 752 mmHg 65%
    17:00 +18°C° 0.2 mm 2 mps 753 mmHg 70%
    18:00 +17°C° 0.2 mm 2 mps 753 mmHg 76%
    19:00 +17°C° 0.5 mm 3 mps 753 mmHg 76%
    20:00 +17°C° 0.5 mm 4 mps 754 mmHg 76%
    21:00 +16°C° 0.5 mm 5 mps 754 mmHg 76%
    22:00 +16°C° 0.8 mm 5 mps 754 mmHg 75%
    23:00 +16°C° 0.8 mm 5 mps 754 mmHg 74%
    Show more